"read_dt","SO2 (ppb)","flags","PMT voltage (V)","lamp voltage (V)","lamp intensity (Hz)","internal temp (C)","react chamber temp (C)","sample flow (l/min)","pres (mmHg)","SO2 bkg (ppb)","SO2 coefficient"
2014-05-04 00:00:00,2766E-2,5C000400,-0724,1025,10264,025.8,045.2,0.000,748.7,01.17,0.508
2014-05-04 00:01:00,2793E-2,5C000400,-0724,1024,10264,025.8,045.2,0.000,748.7,01.17,0.508
2014-05-04 00:02:00,2784E-2,5C000400,-0724,1025,10176,025.8,045.2,0.000,748.7,01.17,0.508
2014-05-04 00:03:00,2801E-2,5C000400,-0724,1024,10293,025.9,045.2,0.000,748.7,01.17,0.508
2014-05-04 00:04:00,2767E-2,5C000400,-0724,1024,10195,025.8,045.3,0.000,748.7,01.17,0.508
2014-05-04 00:05:00,2784E-2,5C000400,-0724,1024,10380,025.9,045.3,0.000,748.7,01.17,0.508
2014-05-04 00:06:00,2804E-2,5C000400,-0724,1024,10365,025.9,045.3,0.000,748.7,01.17,0.508
2014-05-04 00:07:00,2783E-2,5C000400,-0724,1024,10284,025.9,045.2,0.000,748.8,01.17,0.508
2014-05-04 00:08:00,2757E-2,5C000400,-0724,1024,10264,025.8,045.2,0.000,748.8,01.17,0.508
2014-05-04 00:09:00,2828E-2,5C000400,-0724,1024,10290,025.8,045.2,0.000,748.9,01.17,0.508
2014-05-04 00:10:00,2847E-2,5C000400,-0724,1023,10396,025.8,045.3,0.000,748.8,01.17,0.508
2014-05-04 00:11:00,2810E-2,5C000400,-0724,1023,10195,025.9,045.3,0.000,748.8,01.17,0.508
2014-05-04 00:12:00,2851E-2,5C000400,-0724,1022,10222,025.9,045.3,0.000,748.8,01.17,0.508
2014-05-04 00:13:00,2815E-2,5C000400,-0724,1022,10328,025.8,045.2,0.000,748.8,01.17,0.508
2014-05-04 00:14:00,2782E-2,5C000400,-0724,1023,10349,025.9,045.2,0.000,748.8,01.17,0.508
2014-05-04 00:15:00,2811E-2,5C000400,-0724,1022,10309,025.9,045.2,0.000,748.9,01.17,0.508
2014-05-04 00:16:00,2796E-2,5C000400,-0724,1022,10269,025.9,045.2,0.000,749.0,01.17,0.508
2014-05-04 00:17:00,2807E-2,5C000400,-0724,1022,10347,025.9,045.2,0.000,748.9,01.17,0.508
2014-05-04 00:18:00,2801E-2,5C000400,-0724,1023,10296,025.9,045.2,0.000,748.9,01.17,0.508
2014-05-04 00:19:00,2823E-2,5C000400,-0724,1022,10416,025.9,045.2,0.000,748.9,01.17,0.508
2014-05-04 00:20:00,2852E-2,5C000400,-0724,1023,10252,025.9,045.2,0.000,748.9,01.17,0.508
2014-05-04 00:21:00,2797E-2,5C000400,-0724,1022,10298,025.9,045.2,0.000,749.0,01.17,0.508
2014-05-04 00:22:00,2821E-2,5C000400,-0724,1020,10313,025.9,045.2,0.000,749.0,01.17,0.508
2014-05-04 00:23:00,2843E-2,5C000400,-0724,1021,10396,025.9,045.3,0.000,749.1,01.17,0.508
2014-05-04 00:24:00,2831E-2,5C000400,-0724,1020,10424,025.9,045.2,0.000,749.0,01.17,0.508
2014-05-04 00:25:00,2819E-2,5C000400,-0724,1021,10483,025.9,045.2,0.000,749.0,01.17,0.508
2014-05-04 00:26:00,2857E-2,5C000400,-0724,1021,10276,025.9,045.3,0.000,749.1,01.17,0.508
2014-05-04 00:27:00,2838E-2,5C000400,-0724,1021,10309,025.9,045.2,0.000,749.0,01.17,0.508
2014-05-04 00:28:00,2860E-2,5C000400,-0724,1021,10455,025.9,045.2,0.000,749.0,01.17,0.508
2014-05-04 00:29:00,2854E-2,5C000400,-0724,1021,10412,025.9,045.2,0.000,749.1,01.17,0.508
2014-05-04 00:30:00,2809E-2,5C000400,-0724,1022,10227,025.9,045.2,0.000,749.1,01.17,0.508
2014-05-04 00:31:00,2829E-2,5C000400,-0724,1020,10319,025.9,045.2,0.000,749.1,01.17,0.508
2014-05-04 00:32:00,2827E-2,5C000400,-0724,1018,10482,025.9,045.2,0.000,749.1,01.17,0.508
2014-05-04 00:33:00,2835E-2,5C000400,-0724,1020,10392,025.9,045.2,0.000,749.2,01.17,0.508
2014-05-04 00:34:00,2800E-2,5C000400,-0724,1020,10465,025.9,045.2,0.000,749.2,01.17,0.508
2014-05-04 00:35:00,2762E-2,5C000400,-0724,1020,10316,025.9,045.3,0.000,749.2,01.17,0.508
2014-05-04 00:36:00,2796E-2,5C000400,-0724,1021,10354,026.0,045.3,0.000,749.2,01.17,0.508
2014-05-04 00:37:00,2825E-2,5C000400,-0724,1019,10344,026.0,045.3,0.000,749.3,01.17,0.508
2014-05-04 00:38:00,2777E-2,5C000400,-0724,1020,10348,026.0,045.3,0.000,749.2,01.17,0.508
2014-05-04 00:39:00,2833E-2,5C000400,-0724,1019,10095,026.0,045.3,0.000,749.3,01.17,0.508
2014-05-04 00:40:00,2799E-2,5C000400,-0724,1021,10263,026.0,045.2,0.000,749.2,01.17,0.508
2014-05-04 00:41:00,2824E-2,5C000400,-0724,1019,10381,026.0,045.2,0.000,749.3,01.17,0.508
2014-05-04 00:42:00,2798E-2,5C000400,-0724,1020,10304,026.0,045.2,0.000,749.4,01.17,0.508
2014-05-04 00:43:00,2796E-2,5C000400,-0724,1020,10205,026.0,045.3,0.000,749.4,01.17,0.508
2014-05-04 00:44:00,2815E-2,5C000400,-0724,1021,10280,026.0,045.3,0.000,749.4,01.17,0.508
2014-05-04 00:45:00,2802E-2,5C000400,-0724,1019,10373,026.0,045.2,0.000,749.4,01.17,0.508
2014-05-04 00:46:00,2802E-2,5C000400,-0724,1020,10442,026.0,045.2,0.000,749.4,01.17,0.508
2014-05-04 00:47:00,2819E-2,5C000400,-0724,1020,10345,026.0,045.3,0.000,749.4,01.17,0.508
2014-05-04 00:48:00,2844E-2,5C000400,-0724,1020,10231,026.0,045.3,0.000,749.4,01.17,0.508
2014-05-04 00:49:00,2818E-2,5C000400,-0724,1020,10211,026.1,045.3,0.000,749.5,01.17,0.508
2014-05-04 00:50:00,2784E-2,5C000400,-0724,1019,10371,026.1,045.3,0.000,749.5,01.17,0.508
2014-05-04 00:51:00,2803E-2,5C000400,-0724,1022,10370,026.1,045.2,0.000,749.5,01.17,0.508
2014-05-04 00:52:00,2889E-2,5C000400,-0724,1019,10421,026.1,045.3,0.000,749.5,01.17,0.508
2014-05-04 00:53:00,2826E-2,5C000400,-0724,1020,10246,026.1,045.2,0.000,749.5,01.17,0.508
2014-05-04 00:54:00,2789E-2,5C000400,-0724,1021,10320,026.1,045.2,0.000,749.6,01.17,0.508
2014-05-04 00:55:00,2856E-2,5C000400,-0724,1020,10232,026.1,045.3,0.000,749.6,01.17,0.508
2014-05-04 00:56:00,2801E-2,5C000400,-0724,1018,10264,026.1,045.3,0.000,749.7,01.17,0.508
2014-05-04 00:57:00,2828E-2,5C000400,-0724,1021,10390,026.1,045.3,0.000,749.5,01.17,0.508
2014-05-04 00:58:00,2834E-2,5C000400,-0724,1020,10349,026.1,045.2,0.000,749.6,01.17,0.508
2014-05-04 00:59:00,2810E-2,5C000400,-0724,1019,10325,026.1,045.2,0.000,749.6,01.17,0.508
2014-05-04 01:00:00,2782E-2,5C000400,-0724,1020,10389,026.1,045.3,0.000,749.6,01.17,0.508
2014-05-04 01:01:00,2802E-2,5C000400,-0724,1020,10346,026.1,045.2,0.000,749.6,01.17,0.508
2014-05-04 01:02:00,2885E-2,5C000400,-0724,1020,10411,026.1,045.2,0.000,749.7,01.17,0.508
2014-05-04 01:03:00,2812E-2,5C000400,-0724,1020,10477,026.1,045.3,0.000,749.6,01.17,0.508
2014-05-04 01:04:00,2861E-2,5C000400,-0724,1020,10360,026.1,045.3,0.000,749.6,01.17,0.508
2014-05-04 01:05:00,2859E-2,5C000400,-0724,1020,10217,026.1,045.3,0.000,749.6,01.17,0.508
2014-05-04 01:06:00,2858E-2,5C000400,-0724,1020,10269,026.1,045.3,0.000,749.6,01.17,0.508
2014-05-04 01:07:00,2882E-2,5C000400,-0724,1019,10304,026.1,045.3,0.000,749.6,01.17,0.508
2014-05-04 01:08:00,2821E-2,5C000400,-0724,1019,10161,026.1,045.2,0.000,749.7,01.17,0.508
2014-05-04 01:09:00,2819E-2,5C000400,-0724,1020,10482,026.1,045.3,0.000,749.7,01.17,0.508
2014-05-04 01:10:00,2876E-2,5C000400,-0724,1019,10382,026.1,045.3,0.000,749.6,01.17,0.508
2014-05-04 01:11:00,2862E-2,5C000400,-0724,1020,10306,026.1,045.3,0.000,749.6,01.17,0.508
2014-05-04 01:12:00,2845E-2,5C000400,-0724,1021,10338,026.2,045.2,0.000,749.6,01.17,0.508
2014-05-04 01:13:00,2881E-2,5C000400,-0724,1020,10375,026.2,045.3,0.000,749.6,01.17,0.508
2014-05-04 01:14:00,2865E-2,5C000400,-0724,1020,10174,026.2,045.3,0.000,749.7,01.17,0.508
2014-05-04 01:15:00,2903E-2,5C000400,-0724,1021,10404,026.2,045.3,0.000,749.6,01.17,0.508
2014-05-04 01:16:00,2863E-2,5C000400,-0724,1021,10384,026.2,045.2,0.000,749.7,01.17,0.508
2014-05-04 01:17:00,2878E-2,5C000400,-0724,1020,10326,026.2,045.2,0.000,749.7,01.17,0.508
2014-05-04 01:18:00,2895E-2,5C000400,-0724,1020,10293,026.2,045.2,0.000,749.7,01.17,0.508
2014-05-04 01:19:00,2876E-2,5C000400,-0724,1022,10445,026.2,045.3,0.000,749.7,01.17,0.508
2014-05-04 01:20:00,2894E-2,5C000400,-0724,1022,10205,026.2,045.3,0.000,749.8,01.17,0.508
2014-05-04 01:21:00,2893E-2,5C000400,-0724,1021,10243,026.2,045.3,0.000,749.8,01.17,0.508
2014-05-04 01:22:00,2872E-2,5C000400,-0724,1021,10262,026.2,045.3,0.000,749.7,01.17,0.508
2014-05-04 01:23:00,2880E-2,5C000400,-0724,1022,10245,026.2,045.3,0.000,749.8,01.17,0.508
2014-05-04 01:24:00,2877E-2,5C000400,-0724,1022,10365,026.2,045.3,0.000,749.8,01.17,0.508
2014-05-04 01:25:00,2863E-2,5C000400,-0724,1022,10278,026.2,045.3,0.000,749.8,01.17,0.508
2014-05-04 01:26:00,2939E-2,5C000400,-0724,1021,10233,026.2,045.3,0.000,749.8,01.17,0.508
2014-05-04 01:27:00,2878E-2,5C000400,-0724,1022,10483,026.2,045.3,0.000,749.8,01.17,0.508
2014-05-04 01:28:00,2921E-2,5C000400,-0724,1021,10201,026.2,045.3,0.000,749.8,01.17,0.508
2014-05-04 01:29:00,2953E-2,5C000400,-0724,1021,10078,026.2,045.3,0.000,749.8,01.17,0.508
2014-05-04 01:30:00,2945E-2,5C000400,-0724,1021,10369,026.2,045.3,0.000,749.8,01.17,0.508
2014-05-04 01:31:00,2933E-2,5C000400,-0724,1020,10376,026.2,045.2,0.000,749.8,01.17,0.508
2014-05-04 01:32:00,2925E-2,5C000400,-0724,1021,10417,026.2,045.2,0.000,749.8,01.17,0.508
2014-05-04 01:33:00,2881E-2,5C000400,-0724,1022,10106,026.2,045.3,0.000,749.9,01.17,0.508
2014-05-04 01:34:00,2956E-2,5C000400,-0724,1021,10395,026.3,045.3,0.000,749.9,01.17,0.508
2014-05-04 01:35:00,2949E-2,5C000400,-0724,1023,10288,026.2,045.3,0.000,749.9,01.17,0.508
2014-05-04 01:36:00,2922E-2,5C000400,-0724,1022,10256,026.2,045.3,0.000,749.8,01.17,0.508
2014-05-04 01:37:00,2929E-2,5C000400,-0724,1022,10388,026.2,045.3,0.000,750.0,01.17,0.508
2014-05-04 01:38:00,2943E-2,5C000400,-0724,1022,10292,026.3,045.3,0.000,749.9,01.17,0.508
2014-05-04 01:39:00,2946E-2,5C000400,-0724,1022,10431,026.3,045.2,0.000,749.8,01.17,0.508
2014-05-04 01:40:00,2908E-2,5C000400,-0724,1023,10220,026.2,045.2,0.000,749.8,01.17,0.508
2014-05-04 01:41:00,2941E-2,5C000400,-0724,1022,10186,026.2,045.3,0.000,749.9,01.17,0.508
2014-05-04 01:42:00,2914E-2,5C000400,-0724,1023,10444,026.2,045.3,0.000,749.9,01.17,0.508
2014-05-04 01:43:00,2896E-2,5C000400,-0724,1022,10270,026.3,045.3,0.000,749.9,01.17,0.508
2014-05-04 01:44:00,2907E-2,5C000400,-0724,1021,10098,026.3,045.3,0.000,749.9,01.17,0.508
2014-05-04 01:45:00,2876E-2,5C000400,-0724,1022,10377,026.3,045.2,0.000,750.0,01.17,0.508
2014-05-04 01:46:00,2892E-2,5C000400,-0724,1022,10240,026.3,045.3,0.000,749.9,01.17,0.508
2014-05-04 01:47:00,2935E-2,5C000400,-0724,1023,10289,026.3,045.3,0.000,749.9,01.17,0.508
2014-05-04 01:48:00,2900E-2,5C000400,-0724,1024,10361,026.3,045.2,0.000,750.0,01.17,0.508
2014-05-04 01:49:00,2945E-2,5C000400,-0724,1025,10402,026.3,045.2,0.000,749.9,01.17,0.508
2014-05-04 01:50:00,2984E-2,5C000400,-0724,1024,10399,026.3,045.2,0.000,749.9,01.17,0.508
2014-05-04 01:51:00,2931E-2,5C000400,-0724,1025,10106,026.3,045.2,0.000,750.0,01.17,0.508
2014-05-04 01:52:00,2915E-2,5C000400,-0724,1023,10068,026.3,045.3,0.000,750.0,01.17,0.508
2014-05-04 01:53:00,2894E-2,5C000400,-0724,1024,10248,026.3,045.2,0.000,749.9,01.17,0.508
2014-05-04 01:54:00,2934E-2,5C000400,-0724,1024,10477,026.3,045.3,0.000,750.0,01.17,0.508
2014-05-04 01:55:00,2951E-2,5C000400,-0724,1026,10469,026.3,045.3,0.000,750.0,01.17,0.508
2014-05-04 01:56:00,2924E-2,5C000400,-0724,1025,10164,026.3,045.2,0.000,750.0,01.17,0.508
2014-05-04 01:57:00,2940E-2,5C000400,-0724,1025,10192,026.3,045.3,0.000,749.9,01.17,0.508
2014-05-04 01:58:00,2962E-2,5C000400,-0724,1024,10341,026.3,045.2,0.000,749.9,01.17,0.508
2014-05-04 01:59:00,2994E-2,5C000400,-0724,1025,10311,026.3,045.2,0.000,750.0,01.17,0.508
2014-05-04 02:00:00,2926E-2,5C000400,-0724,1025,10360,026.3,045.3,0.000,750.1,01.17,0.508
2014-05-04 02:01:00,2924E-2,5C000400,-0724,1025,10125,026.3,045.3,0.000,750.1,01.17,0.508
2014-05-04 02:02:00,2973E-2,5C000400,-0724,1025,10232,026.3,045.2,0.000,750.0,01.17,0.508
2014-05-04 02:03:00,2934E-2,5C000400,-0724,1026,10319,026.3,045.2,0.000,750.1,01.17,0.508
2014-05-04 02:04:00,2980E-2,5C000400,-0724,1025,10320,026.3,045.3,0.000,750.1,01.17,0.508
2014-05-04 02:05:00,2971E-2,5C000400,-0724,1026,10185,026.3,045.3,0.000,750.2,01.17,0.508
2014-05-04 02:06:00,2958E-2,5C000400,-0724,1025,10372,026.3,045.3,0.000,750.2,01.17,0.508
2014-05-04 02:07:00,2971E-2,5C000400,-0724,1024,10137,026.3,045.3,0.000,750.2,01.17,0.508
2014-05-04 02:08:00,2966E-2,5C000410,-0724,1025,9976,026.3,045.3,0.000,750.3,01.17,0.508
2014-05-04 02:09:00,2978E-2,5C000400,-0724,1026,10095,026.3,045.2,0.000,750.2,01.17,0.508
2014-05-04 02:10:00,2981E-2,5C000400,-0724,1024,10349,026.3,045.2,0.000,750.2,01.17,0.508
2014-05-04 02:11:00,2959E-2,5C000400,-0724,1025,10156,026.3,045.3,0.000,750.3,01.17,0.508
2014-05-04 02:12:00,2979E-2,5C000400,-0724,1025,10365,026.3,045.3,0.000,750.4,01.17,0.508
2014-05-04 02:13:00,2934E-2,5C000400,-0724,1025,10376,026.3,045.3,0.000,750.3,01.17,0.508
2014-05-04 02:14:00,2962E-2,5C000400,-0724,1026,9989,026.3,045.3,0.000,750.4,01.17,0.508
2014-05-04 02:15:00,2987E-2,5C000400,-0724,1026,10364,026.3,045.2,0.103,750.4,01.17,0.508
2014-05-04 02:16:00,2959E-2,5C000400,-0724,1026,10331,026.3,045.2,0.123,750.4,01.17,0.508
2014-05-04 02:17:00,2986E-2,5C000400,-0724,1026,10090,026.3,045.3,0.152,750.5,01.17,0.508
2014-05-04 02:18:00,2960E-2,5C000400,-0724,1025,10193,026.3,045.3,0.143,750.4,01.17,0.508
2014-05-04 02:19:00,2970E-2,5C000400,-0724,1027,10231,026.3,045.3,0.149,750.5,01.17,0.508
2014-05-04 02:20:00,2965E-2,5C000400,-0724,1026,10213,026.3,045.3,0.154,750.5,01.17,0.508
2014-05-04 02:21:00,2965E-2,5C000400,-0724,1027,10267,026.3,045.3,0.165,750.6,01.17,0.508
2014-05-04 02:22:00,2983E-2,5C000400,-0724,1026,10236,026.3,045.3,0.166,750.5,01.17,0.508
2014-05-04 02:23:00,3020E-2,5C000400,-0724,1027,10236,026.3,045.3,0.165,750.5,01.17,0.508
2014-05-04 02:24:00,2944E-2,5C000400,-0724,1026,10357,026.3,045.3,0.172,750.6,01.17,0.508
2014-05-04 02:25:00,2994E-2,5C000400,-0724,1028,10329,026.3,045.3,0.176,750.6,01.17,0.508
2014-05-04 02:26:00,2991E-2,5C000400,-0724,1027,10137,026.3,045.2,0.178,750.6,01.17,0.508
2014-05-04 02:27:00,3027E-2,5C000400,-0724,1027,10293,026.3,045.3,0.178,750.6,01.17,0.508
2014-05-04 02:28:00,3014E-2,5C000400,-0724,1027,10376,026.3,045.3,0.176,750.6,01.17,0.508
2014-05-04 02:29:00,3016E-2,5C000400,-0724,1028,10246,026.3,045.2,0.177,750.6,01.17,0.508
2014-05-04 02:30:00,2981E-2,5C000400,-0724,1028,10159,026.3,045.3,0.183,750.7,01.17,0.508
2014-05-04 02:31:00,3007E-2,5C000400,-0724,1030,10342,026.4,045.3,0.183,750.7,01.17,0.508
2014-05-04 02:32:00,2971E-2,5C000400,-0724,1028,10197,026.3,045.3,0.182,750.7,01.17,0.508
2014-05-04 02:33:00,3022E-2,5C000400,-0724,1029,10315,026.3,045.3,0.191,750.7,01.17,0.508
2014-05-04 02:34:00,3019E-2,5C000400,-0724,1029,10306,026.3,045.3,0.190,750.7,01.17,0.508
2014-05-04 02:35:00,2990E-2,5C000400,-0724,1028,10224,026.3,045.3,0.185,750.7,01.17,0.508
2014-05-04 02:36:00,3039E-2,5C000400,-0724,1028,10255,026.4,045.3,0.186,750.7,01.17,0.508
2014-05-04 02:37:00,3020E-2,5C000400,-0724,1028,10208,026.4,045.3,0.182,750.7,01.17,0.508
2014-05-04 02:38:00,2977E-2,5C000400,-0724,1029,10265,026.4,045.2,0.187,750.7,01.17,0.508
2014-05-04 02:39:00,3022E-2,5C000400,-0724,1030,10211,026.3,045.3,0.197,750.8,01.17,0.508
2014-05-04 02:40:00,3033E-2,5C000400,-0724,1029,10124,026.4,045.3,0.193,750.8,01.17,0.508
2014-05-04 02:41:00,3046E-2,5C000400,-0724,1029,10151,026.4,045.3,0.188,750.7,01.17,0.508
2014-05-04 02:42:00,3033E-2,5C000400,-0724,1030,10274,026.4,045.3,0.191,750.8,01.17,0.508
2014-05-04 02:43:00,3057E-2,5C000400,-0724,1030,10186,026.4,045.3,0.189,750.8,01.17,0.508
2014-05-04 02:44:00,3026E-2,5C000400,-0724,1031,10224,026.4,045.3,0.184,750.7,01.17,0.508
2014-05-04 02:45:00,3026E-2,5C000400,-0724,1031,10372,026.4,045.2,0.189,750.8,01.17,0.508
2014-05-04 02:46:00,3012E-2,5C000400,-0724,1031,10194,026.4,045.3,0.197,750.9,01.17,0.508
2014-05-04 02:47:00,3061E-2,5C000400,-0724,1031,10122,026.4,045.3,0.202,750.9,01.17,0.508
2014-05-04 02:48:00,3007E-2,5C000400,-0724,1032,10313,026.4,045.3,0.194,750.8,01.17,0.508
2014-05-04 02:49:00,3020E-2,5C000400,-0724,1032,10216,026.4,045.3,0.189,750.7,01.17,0.508
2014-05-04 02:50:00,3010E-2,5C000400,-0724,1031,10305,026.4,045.3,0.195,750.8,01.17,0.508
2014-05-04 02:51:00,3016E-2,5C000400,-0724,1030,10043,026.4,045.2,0.199,750.8,01.17,0.508
2014-05-04 02:52:00,3057E-2,5C000400,-0724,1030,10243,026.4,045.3,0.200,750.9,01.17,0.508
2014-05-04 02:53:00,3024E-2,5C000400,-0724,1032,10214,026.4,045.3,0.199,750.9,01.17,0.508
2014-05-04 02:54:00,2900E-2,5C000400,-0724,1030,10225,026.4,045.3,0.198,750.9,01.17,0.508
2014-05-04 02:55:00,2919E-2,5C000400,-0724,1028,10349,026.4,045.2,0.197,750.9,01.17,0.508
2014-05-04 02:56:00,2925E-2,5C000400,-0724,1027,10134,026.4,045.3,0.199,750.9,01.17,0.508
2014-05-04 02:57:00,2938E-2,5C000400,-0724,1027,10303,026.4,045.3,0.199,750.9,01.17,0.508
2014-05-04 02:58:00,2963E-2,5C000400,-0724,1029,10301,026.4,045.3,0.198,750.9,01.17,0.508
2014-05-04 02:59:00,2898E-2,5C000400,-0724,1027,10261,026.4,045.2,0.201,750.9,01.17,0.508
2014-05-04 03:00:00,2939E-2,5C000400,-0724,1029,10219,026.4,045.3,0.207,750.9,01.17,0.508
2014-05-04 03:01:00,2945E-2,5C000400,-0724,1030,10205,026.4,045.3,0.208,750.9,01.17,0.508
2014-05-04 03:02:00,3004E-2,5C000400,-0724,1029,10382,026.4,045.3,0.213,750.9,01.17,0.508
2014-05-04 03:03:00,2934E-2,5C000400,-0724,1029,10319,026.4,045.3,0.213,750.9,01.17,0.508
2014-05-04 03:04:00,2946E-2,5C000400,-0724,1029,10184,026.4,045.3,0.209,750.8,01.17,0.508
2014-05-04 03:05:00,2937E-2,5C000400,-0724,1030,10206,026.4,045.3,0.207,750.9,01.17,0.508
2014-05-04 03:06:00,2803E-2,5C000400,-0724,1025,10323,026.4,045.3,0.205,750.9,01.17,0.508
2014-05-04 03:07:00,2760E-2,5C000400,-0724,1028,10352,026.4,045.3,0.199,750.8,01.17,0.508
2014-05-04 03:08:00,2739E-2,5C000400,-0724,1028,10207,026.4,045.2,0.198,750.8,01.17,0.508
2014-05-04 03:09:00,2708E-2,5C000400,-0724,1026,10273,026.4,045.3,0.204,750.9,01.17,0.508
2014-05-04 03:10:00,2760E-2,5C000400,-0724,1028,10266,026.4,045.3,0.204,750.9,01.17,0.508
2014-05-04 03:11:00,2731E-2,5C000400,-0724,1028,10264,026.4,045.2,0.205,750.9,01.17,0.508
2014-05-04 03:12:00,2728E-2,5C000400,-0724,1029,10222,026.4,045.3,0.200,750.9,01.17,0.508
2014-05-04 03:13:00,2734E-2,5C000400,-0724,1029,9801,026.4,045.3,0.202,750.9,01.17,0.508
2014-05-04 03:14:00,2765E-2,5C000400,-0724,1029,10312,026.4,045.3,0.200,750.9,01.17,0.508
2014-05-04 03:15:00,2722E-2,5C000400,-0724,1028,10277,026.4,045.3,0.197,750.8,01.17,0.508
2014-05-04 03:16:00,2731E-2,5C000400,-0724,1031,10289,026.4,045.3,0.195,750.8,01.17,0.508
2014-05-04 03:17:00,2756E-2,5C000400,-0724,1029,10146,026.4,045.2,0.200,750.9,01.17,0.508
2014-05-04 03:18:00,2770E-2,5C000400,-0724,1028,9896,026.4,045.2,0.205,750.9,01.17,0.508
2014-05-04 03:19:00,2697E-2,5C000400,-0724,1030,10242,026.4,045.3,0.206,750.9,01.17,0.508
2014-05-04 03:20:00,2745E-2,5C000400,-0724,1030,10348,026.4,045.3,0.203,750.9,01.17,0.508
2014-05-04 03:21:00,2691E-2,5C000400,-0724,1028,10276,026.4,045.3,0.196,750.8,01.17,0.508
2014-05-04 03:22:00,2715E-2,5C000400,-0724,1025,10389,026.4,045.3,0.197,750.8,01.17,0.508
2014-05-04 03:23:00,2701E-2,5C000400,-0724,1025,10101,026.4,045.3,0.202,750.9,01.17,0.508
2014-05-04 03:24:00,2719E-2,5C000400,-0724,1026,10170,026.4,045.3,0.202,750.9,01.17,0.508
2014-05-04 03:25:00,2723E-2,5C000400,-0724,1026,10303,026.4,045.3,0.191,750.8,01.17,0.508
2014-05-04 03:26:00,2757E-2,5C000400,-0724,1027,10163,026.4,045.2,0.190,750.8,01.17,0.508
2014-05-04 03:27:00,2729E-2,5C000400,-0724,1026,10177,026.4,045.2,0.195,750.9,01.17,0.508
2014-05-04 03:28:00,2759E-2,5C000400,-0724,1028,10345,026.4,045.2,0.205,750.9,01.17,0.508
2014-05-04 03:29:00,2730E-2,5C000400,-0724,1029,10374,026.4,045.2,0.203,750.9,01.17,0.508
2014-05-04 03:30:00,2744E-2,5C000400,-0724,1027,10391,026.4,045.3,0.197,750.9,01.17,0.508
2014-05-04 03:31:00,2743E-2,5C000400,-0724,1028,10111,026.4,045.3,0.195,750.8,01.17,0.508
2014-05-04 03:32:00,2741E-2,5C000400,-0724,1028,10295,026.4,045.3,0.198,750.9,01.17,0.508
2014-05-04 03:33:00,2771E-2,5C000400,-0724,1028,10385,026.4,045.3,0.194,750.9,01.17,0.508
2014-05-04 03:34:00,2724E-2,5C000400,-0724,1029,10255,026.4,045.3,0.194,750.9,01.17,0.508
2014-05-04 03:35:00,2743E-2,5C000400,-0724,1029,10101,026.4,045.2,0.194,750.9,01.17,0.508
2014-05-04 03:36:00,2782E-2,5C000400,-0724,1030,10100,026.5,045.2,0.196,750.9,01.17,0.508
2014-05-04 03:37:00,2747E-2,5C000400,-0724,1030,10187,026.4,045.3,0.195,751.0,01.17,0.508
2014-05-04 03:38:00,2730E-2,5C000400,-0724,1030,10194,026.4,045.3,0.197,751.0,01.17,0.508
2014-05-04 03:39:00,2709E-2,5C000400,-0724,1031,10009,026.5,045.3,0.190,750.9,01.17,0.508
2014-05-04 03:40:00,2733E-2,5C000400,-0724,1030,10078,026.4,045.3,0.186,750.9,01.17,0.508
2014-05-04 03:41:00,2733E-2,5C000400,-0724,1031,10207,026.5,045.3,0.193,751.0,01.17,0.508
2014-05-04 03:42:00,2800E-2,5C000400,-0724,1030,10134,026.5,045.3,0.196,751.0,01.17,0.508
2014-05-04 03:43:00,2756E-2,5C000400,-0724,1031,10132,026.5,045.3,0.197,751.0,01.17,0.508
2014-05-04 03:44:00,2792E-2,5C000400,-0724,1031,10039,026.5,045.2,0.193,751.0,01.17,0.508
2014-05-04 03:45:00,2781E-2,5C000400,-0724,1032,10240,026.4,045.3,0.203,751.1,01.17,0.508
2014-05-04 03:46:00,2775E-2,5C000400,-0724,1032,10349,026.5,045.3,0.207,751.1,01.17,0.508
2014-05-04 03:47:00,2760E-2,5C000400,-0724,1031,10329,026.4,045.3,0.201,751.0,01.17,0.508
2014-05-04 03:48:00,2741E-2,5C000400,-0724,1031,10240,026.5,045.3,0.202,751.1,01.17,0.508
2014-05-04 03:49:00,2780E-2,5C000400,-0724,1031,10122,026.5,045.3,0.200,751.1,01.17,0.508
2014-05-04 03:50:00,2719E-2,5C000400,-0724,1031,10150,026.5,045.3,0.203,751.2,01.17,0.508
2014-05-04 03:51:00,2792E-2,5C000400,-0724,1030,10030,026.5,045.3,0.201,751.2,01.17,0.508
2014-05-04 03:52:00,2720E-2,5C000400,-0724,1028,10332,026.5,045.3,0.197,751.2,01.17,0.508
2014-05-04 03:53:00,2767E-2,5C000400,-0724,1028,10132,026.5,045.3,0.193,751.2,01.17,0.508
2014-05-04 03:54:00,2762E-2,5C000400,-0724,1028,10311,026.5,045.3,0.193,751.2,01.17,0.508
2014-05-04 03:55:00,2749E-2,5C000400,-0724,1029,10190,026.5,045.3,0.199,751.2,01.17,0.508
2014-05-04 03:56:00,2761E-2,5C000400,-0724,1029,10205,026.5,045.3,0.196,751.2,01.17,0.508
2014-05-04 03:57:00,2760E-2,5C000400,-0724,1029,10033,026.5,045.3,0.194,751.2,01.17,0.508
2014-05-04 03:58:00,2709E-2,5C000410,-0724,1031,10126,026.6,045.3,0.198,751.3,01.17,0.508
2014-05-04 03:59:00,2719E-2,5C000400,-0724,1030,10285,026.5,045.3,0.208,751.3,01.17,0.508
2014-05-04 04:00:00,2725E-2,5C000400,-0724,1031,10297,026.5,045.3,0.203,751.3,01.17,0.508
2014-05-04 04:01:00,2753E-2,5C000400,-0724,1031,10167,026.5,045.3,0.197,751.2,01.17,0.508
2014-05-04 04:02:00,2711E-2,5C000400,-0724,1032,10075,026.5,045.3,0.201,751.3,01.17,0.508
2014-05-04 04:03:00,2750E-2,5C000400,-0724,1032,10281,026.5,045.3,0.203,751.3,01.17,0.508
2014-05-04 04:04:00,2761E-2,5C000400,-0724,1031,10157,026.5,045.3,0.205,751.4,01.17,0.508
2014-05-04 04:05:00,2742E-2,5C000400,-0724,1032,10287,026.5,045.2,0.202,751.3,01.17,0.508
2014-05-04 04:06:00,2726E-2,5C000400,-0724,1032,10213,026.5,045.2,0.207,751.4,01.17,0.508
2014-05-04 04:07:00,2746E-2,5C000400,-0724,1031,10288,026.5,045.3,0.214,751.5,01.17,0.508
2014-05-04 04:08:00,2764E-2,5C000400,-0724,1030,10176,026.5,045.3,0.206,751.4,01.17,0.508
2014-05-04 04:09:00,2739E-2,5C000400,-0724,1030,10180,026.5,045.3,0.202,751.4,01.17,0.508
2014-05-04 04:10:00,2756E-2,5C000400,-0724,1030,10378,026.6,045.2,0.200,751.4,01.17,0.508
2014-05-04 04:11:00,2716E-2,5C000400,-0724,1030,10191,026.5,045.3,0.200,751.5,01.17,0.508
2014-05-04 04:12:00,2749E-2,5C000400,-0724,1030,10038,026.6,045.3,0.198,751.5,01.17,0.508
2014-05-04 04:13:00,2772E-2,5C000400,-0724,1030,10162,026.5,045.3,0.191,751.4,01.17,0.508
2014-05-04 04:14:00,2758E-2,5C000400,-0724,1031,10188,026.6,045.3,0.201,751.6,01.17,0.508
2014-05-04 04:15:00,2739E-2,5C000400,-0724,1030,10143,026.6,045.3,0.195,751.5,01.17,0.508
2014-05-04 04:16:00,2718E-2,5C000400,-0724,1029,10055,026.5,045.3,0.194,751.5,01.17,0.508
2014-05-04 04:17:00,2725E-2,5C000400,-0724,1031,10240,026.6,045.3,0.195,751.6,01.17,0.508
2014-05-04 04:18:00,2758E-2,5C000400,-0724,1031,10252,026.6,045.3,0.185,751.5,01.17,0.508
2014-05-04 04:19:00,2718E-2,5C000400,-0724,1031,10230,026.6,045.2,0.185,751.5,01.17,0.508
2014-05-04 04:20:00,2734E-2,5C000400,-0724,1031,10174,026.6,045.3,0.186,751.5,01.17,0.508